When you browse on this site, cookies collect data to enhance your experience and personalize the content and advertising you see.
Visit our Privacy Policy to learn more. By continuing to use the site, you agree to this use of cookies and data.
  • In Austria
  • List of Countries
  • For 7 days
  • Water Temperature
  • Satellite Maps
  • Weather Map
  • News
  • Weather Widgets
  • user-avatar
    Login

    Hourly Weather Sharan

    Today, 22 April, Monday

    Time Temperature Precipitation Wind Pressure Humidity
    00:00 +17°C° 0 mm 4 mps 587 mmHg 32%
    01:00 +17°C° 0 mm 3 mps 587 mmHg 34%
    02:00 +16°C° 0 mm 2 mps 587 mmHg 36%
    03:00 +16°C° 0 mm 2 mps 587 mmHg 37%
    04:00 +15°C° 0 mm 1 mps 586 mmHg 39%
    05:00 +14°C° 0 mm 1 mps 586 mmHg 40%
    06:00 +15°C° 0 mm 1 mps 587 mmHg 37%
    07:00 +16°C° 0 mm 1 mps 588 mmHg 34%
    08:00 +18°C° 0 mm 1 mps 588 mmHg 31%
    09:00 +19°C° 0 mm 1 mps 589 mmHg 28%
    10:00 +20°C° 0 mm 1 mps 589 mmHg 25%
    11:00 +21°C° 0 mm 2 mps 590 mmHg 21%
    12:00 +21°C° 0 mm 2 mps 590 mmHg 19%
    13:00 +22°C° 0 mm 3 mps 590 mmHg 17%
    14:00 +24°C° 0 mm 3 mps 590 mmHg 15%
    15:00 +24°C° 0 mm 3 mps 590 mmHg 14%
    16:00 +25°C° 0 mm 4 mps 590 mmHg 13%
    17:00 +25°C° 0 mm 5 mps 590 mmHg 12%
    18:00 +23°C° 0 mm 5 mps 590 mmHg 15%
    19:00 +22°C° 0 mm 6 mps 590 mmHg 18%
    20:00 +21°C° 0 mm 7 mps 590 mmHg 22%
    21:00 +20°C° 0 mm 6 mps 589 mmHg 23%
    22:00 +20°C° 0 mm 5 mps 589 mmHg 25%
    23:00 +19°C° 0 mm 4 mps 589 mmHg 27%

    Tomorrow, 23 April, Tuesday

    Time Temperature Precipitation Wind Pressure Humidity
    00:00 +18°C° 0 mm 4 mps 589 mmHg 28%
    01:00 +18°C° 0 mm 3 mps 589 mmHg 30%
    02:00 +17°C° 0 mm 2 mps 588 mmHg 32%
    03:00 +17°C° 0 mm 2 mps 588 mmHg 33%
    04:00 +17°C° 0 mm 3 mps 588 mmHg 33%
    05:00 +16°C° 0 mm 3 mps 588 mmHg 34%
    06:00 +17°C° 0 mm 4 mps 588 mmHg 35%
    07:00 +16°C° 0 mm 5 mps 589 mmHg 36%
    08:00 +16°C° 0 mm 6 mps 590 mmHg 36%
    09:00 +17°C° 0 mm 6 mps 590 mmHg 35%
    10:00 +19°C° 0 mm 5 mps 590 mmHg 33%
    11:00 +21°C° 0 mm 5 mps 591 mmHg 32%
    12:00 +22°C° 0 mm 6 mps 591 mmHg 29%
    13:00 +23°C° 0 mm 7 mps 591 mmHg 27%
    14:00 +24°C° 0 mm 7 mps 591 mmHg 24%
    15:00 +24°C° 0 mm 8 mps 591 mmHg 23%
    16:00 +24°C° 0 mm 8 mps 591 mmHg 22%
    17:00 +26°C° 0 mm 9 mps 591 mmHg 21%
    18:00 +23°C° 0 mm 7 mps 590 mmHg 25%
    19:00 +22°C° 0 mm 6 mps 590 mmHg 28%
    20:00 +21°C° 0 mm 4 mps 590 mmHg 32%
    21:00 +21°C° 0.1 mm 4 mps 590 mmHg 35%
    22:00 +20°C° 0.1 mm 3 mps 590 mmHg 38%
    23:00 +19°C° 0.1 mm 3 mps 590 mmHg 42%

    Day after tomorrow, 24 April, Wednesday

    Time Temperature Precipitation Wind Pressure Humidity
    00:00 +19°C° 0.1 mm 4 mps 590 mmHg 45%
    01:00 +17°C° 0.1 mm 5 mps 589 mmHg 47%
    02:00 +16°C° 0.1 mm 6 mps 589 mmHg 50%
    03:00 +16°C° 0.1 mm 5 mps 588 mmHg 53%
    04:00 +15°C° 0.1 mm 5 mps 588 mmHg 55%
    05:00 +15°C° 0.1 mm 4 mps 588 mmHg 58%
    06:00 +15°C° 0.6 mm 4 mps 588 mmHg 58%
    07:00 +15°C° 0.6 mm 5 mps 588 mmHg 58%
    08:00 +15°C° 0.6 mm 5 mps 589 mmHg 58%
    09:00 +16°C° 0.7 mm 6 mps 589 mmHg 55%
    10:00 +17°C° 0.7 mm 7 mps 589 mmHg 53%
    11:00 +17°C° 0.7 mm 8 mps 590 mmHg 50%
    12:00 +18°C° 0.9 mm 8 mps 589 mmHg 47%
    13:00 +19°C° 0.9 mm 9 mps 589 mmHg 44%
    14:00 +21°C° 0.9 mm 9 mps 589 mmHg 41%
    15:00 +21°C° 0.3 mm 10 mps 589 mmHg 37%
    16:00 +21°C° 0.3 mm 12 mps 588 mmHg 34%
    17:00 +20°C° 0.3 mm 13 mps 588 mmHg 31%
    18:00 +19°C° 0 mm 11 mps 588 mmHg 32%
    19:00 +18°C° 0 mm 8 mps 588 mmHg 34%
    20:00 +16°C° 0 mm 6 mps 588 mmHg 35%
    21:00 +15°C° 0 mm 6 mps 587 mmHg 35%
    22:00 +14°C° 0 mm 6 mps 587 mmHg 34%
    23:00 +13°C° 0 mm 6 mps 587 mmHg 34%

    25 April, Thursday

    Time Temperature Precipitation Wind Pressure Humidity
    00:00 +13°C° 0 mm 6 mps 586 mmHg 37%
    01:00 +11°C° 0 mm 6 mps 586 mmHg 40%
    02:00 +12°C° 0 mm 5 mps 585 mmHg 42%
    03:00 +10°C° 0 mm 5 mps 585 mmHg 45%
    04:00 +10°C° 0 mm 5 mps 585 mmHg 47%
    05:00 +9°C° 0 mm 5 mps 585 mmHg 50%
    06:00 +10°C° 0 mm 5 mps 586 mmHg 44%
    07:00 +12°C° 0 mm 5 mps 587 mmHg 39%
    08:00 +11°C° 0 mm 6 mps 587 mmHg 34%
    09:00 +14°C° 0 mm 6 mps 588 mmHg 30%
    10:00 +15°C° 0 mm 7 mps 589 mmHg 25%
    11:00 +17°C° 0 mm 8 mps 589 mmHg 21%
    12:00 +18°C° 0 mm 8 mps 589 mmHg 21%
    13:00 +18°C° 0 mm 8 mps 589 mmHg 21%
    14:00 +20°C° 0 mm 8 mps 589 mmHg 21%
    15:00 +20°C° 0 mm 8 mps 589 mmHg 21%
    16:00 +20°C° 0 mm 8 mps 588 mmHg 20%
    17:00 +20°C° 0 mm 8 mps 588 mmHg 20%
    18:00 +18°C° 0 mm 7 mps 588 mmHg 22%
    19:00 +16°C° 0 mm 6 mps 588 mmHg 25%
    20:00 +15°C° 0 mm 5 mps 588 mmHg 27%
    21:00 +14°C° 0 mm 5 mps 587 mmHg 30%
    22:00 +14°C° 0 mm 4 mps 587 mmHg 32%
    23:00 +13°C° 0 mm 3 mps 587 mmHg 34%

    26 April, Friday

    Time Temperature Precipitation Wind Pressure Humidity
    00:00 +12°C° 0 mm 3 mps 587 mmHg 36%
    01:00 +12°C° 0 mm 3 mps 586 mmHg 37%
    02:00 +12°C° 0 mm 2 mps 586 mmHg 38%
    03:00 +10°C° 0 mm 2 mps 585 mmHg 39%
    04:00 +10°C° 0 mm 2 mps 585 mmHg 40%
    05:00 +9°C° 0 mm 2 mps 585 mmHg 41%
    06:00 +10°C° 0 mm 2 mps 586 mmHg 37%
    07:00 +12°C° 0 mm 2 mps 587 mmHg 34%
    08:00 +13°C° 0 mm 2 mps 587 mmHg 30%
    09:00 +13°C° 0 mm 3 mps 588 mmHg 28%
    10:00 +15°C° 0 mm 4 mps 589 mmHg 25%
    11:00 +16°C° 0 mm 5 mps 589 mmHg 23%
    12:00 +17°C° 0 mm 6 mps 589 mmHg 21%
    13:00 +18°C° 0 mm 7 mps 589 mmHg 19%
    14:00 +20°C° 0 mm 8 mps 589 mmHg 18%
    15:00 +20°C° 0 mm 7 mps 589 mmHg 18%
    16:00 +20°C° 0 mm 7 mps 588 mmHg 18%
    17:00 +20°C° 0 mm 7 mps 588 mmHg 18%
    18:00 +18°C° 0 mm 7 mps 588 mmHg 20%
    19:00 +17°C° 0 mm 6 mps 588 mmHg 23%
    20:00 +16°C° 0 mm 6 mps 588 mmHg 25%
    21:00 +15°C° 0 mm 5 mps 588 mmHg 28%
    22:00 +14°C° 0 mm 4 mps 588 mmHg 30%
    23:00 +13°C° 0 mm 3 mps 588 mmHg 32%

    27 April, Saturday

    Time Temperature Precipitation Wind Pressure Humidity
    00:00 +13°C° 0 mm 3 mps 587 mmHg 34%
    01:00 +12°C° 0 mm 3 mps 587 mmHg 35%
    02:00 +12°C° 0 mm 3 mps 587 mmHg 37%
    03:00 +11°C° 0 mm 3 mps 586 mmHg 39%
    04:00 +10°C° 0 mm 3 mps 586 mmHg 40%
    05:00 +10°C° 0 mm 2 mps 586 mmHg 42%
    06:00 +11°C° 0 mm 3 mps 587 mmHg 39%
    07:00 +12°C° 0 mm 4 mps 587 mmHg 36%
    08:00 +12°C° 0 mm 4 mps 588 mmHg 33%
    09:00 +14°C° 0 mm 5 mps 589 mmHg 29%
    10:00 +15°C° 0 mm 6 mps 589 mmHg 25%
    11:00 +16°C° 0 mm 6 mps 590 mmHg 21%
    12:00 +17°C° 0 mm 7 mps 590 mmHg 19%
    13:00 +18°C° 0 mm 7 mps 589 mmHg 17%
    14:00 +20°C° 0 mm 7 mps 589 mmHg 15%
    15:00 +20°C° 0 mm 8 mps 589 mmHg 15%
    16:00 +20°C° 0 mm 8 mps 589 mmHg 15%
    17:00 +20°C° 0 mm 8 mps 588 mmHg 15%
    18:00 +17°C° 0 mm 7 mps 588 mmHg 17%
    19:00 +16°C° 0 mm 6 mps 588 mmHg 19%
    20:00 +15°C° 0 mm 5 mps 588 mmHg 22%
    21:00 +14°C° 0 mm 5 mps 588 mmHg 24%
    22:00 +14°C° 0 mm 5 mps 587 mmHg 27%
    23:00 +13°C° 0 mm 5 mps 587 mmHg 29%
    Show more